Portada
METAR-TAF:

METAR-TAF

Aeroports :

Baltra, Illes Galápagos, Equador

latitud: 00-27-14S, longitud: 090-15-57W, altitud: 63 m

Observació

L'informe es va fer fa 20 minuts, a les 14:00 UTC
Vent 9 kt del Sud/Sud-Est, variant entre Sud-Est i Sud
Temperatura 24°C
Humitat 74%
Pressió 1016 hPa
Visibilitat 10 km o més
Cel ennuvolat a una alçada de 2000 ft

METAR: SEGS 071400Z 16009KT 130V190 9999 BKN020 24/19 Q1016 A3000

Hora: 08:20 (14:20 UTC)


TAF: manca

Observacions i pronòstics meteorològics de més de 4000 aeroports (METAR i TAF).

Les estacions disponibles són els punts grocs i vermells al mapa.

Posi el ratolí al punt desitjat per veure el nom de l'estació.

Feu clic per veure les observacions i els pronòstics meteorològics.

Per canviar el mapa: feu clic els botons verds amb una creu de color negre per apropar; al botó verd amb un guió per allunyar la imatge; o en les fletxes verdes per a mapes adjacents.


METAR-TAF: